Gainesville, FL

1:25 AM EDT on June 26, 2017 (GMT -0400)
Gainesville Regional

Weather History for KGNV - August, 2013

Change the Weather History Date:

Thursday, August 1, 2013

  Actual Average Record
Temperature  
Mean Temperature 81 °F 81 °F  
Max Temperature 88 °F 91 °F 100 °F (1896)
Min Temperature 73 °F 72 °F 66 °F (1966)
Degree Days  
Heating Degree Days 0 0  
Month to date heating degree days 0 0  
Since 1 June heating degree days 0 0  
Since 1 July heating degree days 0 0  
Cooling Degree Days 16 16  
Month to date cooling degree days 16 16  
Year to date cooling degree days 1535 1467  
Since 1 June cooling degree days 1003 957  
Growing Degree Days 30 (Base 50)    
Moisture  
Dew Point 72 °F    
Average Humidity 76    
Maximum Humidity 93    
Minimum Humidity 59    
Precipitation  
Precipitation 0.46 in 0.20 in 3.56 in (1968)
Month to date precipitation 0.46 0.20  
Year to date precipitation 34.36 29.38  
Snow  
Snow 0.00 in 0.00 in 0.00 in ()
Month to date snowfall 0.0 0.0  
Since 1 June snowfall 0.0 0.0  
Since 1 July snowfall 0.0 0.0  
Snow Depth 0.00 in    
Sea Level Pressure  
Sea Level Pressure 30.01 in    
Wind  
Wind Speed 2 mph (SSW)    
Max Wind Speed 21 mph    
Max Gust Speed 31 mph    
Visibility 8 miles    
Events Rain    
T = Trace of Precipitation, MM = Missing Value Source: NWS Daily Summary

Daily Weather History Graph

Daily Weather History Graph

Search for Another Location

Airport or City:

Trip Planner

Search our weather history database for the weather conditions in past years. The results will help you decide how hot, cold, wet, or windy it might be!

Date:

Astronomy

Aug. 01, 2013 Rise Set
Actual Time 6:48 AM EDT 8:21 PM EDT
Civil Twilight 6:22 AM EDT 8:47 PM EDT
Nautical Twilight 5:52 AM EDT 9:18 PM EDT
Astronomical Twilight 5:19 AM EDT 9:50 PM EDT
Moon 2:26 AM EDT (8/1) 4:26 PM EDT (8/1)
Length of Visible Light 14h 24m
Length of Day
13h 32m
Waning Crescent, 23% of the Moon is Illuminated
Aug 1
Waning Crescent
Aug 6
New
Aug 14
First Quarter
Aug 20
Full
Aug 28
Last Quarter

Hourly Weather History & Observations

Time (EDT) Temp. Heat Index Dew Point Humidity Pressure Visibility Wind Dir Wind Speed Gust Speed Precip Events Conditions
12:53 AM 73.9 °F - 71.1 °F 91% - 10.0 mi SSE 3.5 mph - N/A   Scattered Clouds
1:53 AM 73.0 °F - 71.1 °F 93% - 10.0 mi SSW 3.5 mph - 0.00 in   Clear
2:53 AM 73.0 °F - 71.1 °F 93% - 10.0 mi Calm Calm - N/A   Clear
3:53 AM 73.0 °F - 71.1 °F 93% - 9.0 mi Calm Calm - N/A   Clear
4:53 AM 73.0 °F - 71.1 °F 93% - 7.0 mi Calm Calm - N/A   Clear
5:53 AM 73.9 °F - 71.1 °F 91% - 8.0 mi Calm Calm - N/A   Clear
6:53 AM 73.9 °F - 71.1 °F 91% 30.01 in 9.0 mi Calm Calm - N/A   Partly Cloudy
7:53 AM 73.9 °F - 72.0 °F 93% 30.02 in 7.0 mi Calm Calm - N/A   Unknown
8:53 AM 75.9 °F - 72.0 °F 87% 30.03 in 8.0 mi Calm Calm - N/A   Clear
9:53 AM 81.0 °F 86.2 °F 73.9 °F 79% 30.03 in 9.0 mi South 4.6 mph - N/A   Clear
10:53 AM 82.9 °F 90.2 °F 75.0 °F 77% 30.04 in 9.0 mi WSW 5.8 mph - N/A   Clear
11:53 AM 84.0 °F 91.2 °F 73.9 °F 72% 30.03 in 9.0 mi WNW 3.5 mph - N/A   Clear
12:53 PM 88.0 °F 94.7 °F 72.0 °F 59% 30.01 in 9.0 mi Calm Calm - N/A   Clear
1:27 PM 78.8 °F - 71.6 °F 78% 30.01 in 1.8 mi SW 17.3 mph 23.0 mph 0.00 in Rain Heavy Rain
1:34 PM 77.0 °F - 71.6 °F 83% 30.00 in 3.0 mi WNW 9.2 mph 23.0 mph 0.09 in Rain Heavy Rain
1:53 PM 79.0 °F - 72.0 °F 79% 30.00 in 7.0 mi South 4.6 mph - 0.21 in Rain Light Rain
2:53 PM 82.0 °F 87.9 °F 73.9 °F 76% 30.00 in 9.0 mi NW 6.9 mph - 0.00 in   Clear
3:53 PM 79.0 °F - 73.0 °F 82% 29.99 in 10.0 mi Calm Calm - N/A   Partly Cloudy
4:53 PM 81.0 °F 86.2 °F 73.9 °F 79% 29.99 in 10.0 mi SSE 4.6 mph - N/A   Mostly Cloudy
5:09 PM 75.2 °F - 69.8 °F 83% 30.01 in 1.5 mi SSW 19.6 mph 31.1 mph 0.00 in Rain Heavy Rain
5:35 PM 75.2 °F - 69.8 °F 83% 30.00 in 7.0 mi Calm Calm - 0.23 in Rain Light Rain
5:53 PM 75.0 °F - 71.1 °F 87% 30.00 in 5.0 mi West 5.8 mph - 0.23 in Rain Light Rain
6:53 PM 75.9 °F - 72.0 °F 87% 29.99 in 10.0 mi Calm Calm - 0.02 in   Clear
7:53 PM 75.9 °F - 73.0 °F 91% 29.99 in 7.0 mi Calm Calm - 0.00 in Rain Light Rain
8:53 PM 75.0 °F - 73.0 °F 94% 29.98 in 7.0 mi Calm Calm - 0.00 in   Clear
9:53 PM 73.9 °F - 72.0 °F 93% 29.99 in 7.0 mi SE 3.5 mph - N/A   Clear
10:53 PM 73.9 °F - 72.0 °F 93% 30.01 in 7.0 mi Calm Calm - N/A   Clear
11:53 PM 73.9 °F - 72.0 °F 93% 30.00 in 7.0 mi South 3.5 mph - N/A   Scattered Clouds